Location: Valdosta
(30.8330°N, 83.2790°W)
Time: 03:18:14
(UTC-05:00)

Daily predictions for brighter satellites

Satellite Brightness Start Highest point End
(mag) Time Altitude Azimuth Time Altitude Azimuth Time Altitude Azimuth
H-2A R/B 4.3 04:21:25 25° SSE 04:24:16 33° SE 04:44:11 10° ENE
Cosmos 1980 Rocket 4.0 04:43:32 21° NNE 04:45:44 26° ENE 04:50:25 10° ESE
Milstar 3 Cent rocket 3.6 04:45:46 47° SSW 04:46:19 47° SSW 04:58:30 10° SE
OAO 2 Rocket 4.2 04:53:26 48° E 04:53:26 48° E 04:57:15 10° E
Cosmos 1656 4.2 05:09:47 44° S 05:09:47 44° S 05:13:33 10° S
Cosmos 1536 4.2 05:06:04 10° SSE 05:08:50 36° SE 05:08:50 36° SE
SJ 16-02 2.4 05:12:58 38° SSE 05:12:58 38° SSE 05:15:44 10° SSE
Meteor 1-11 Rocket 3.8 05:07:26 10° S 05:13:23 80° E 05:19:17 10° N
Timation 2 Rocket 4.2 05:07:48 10° SSW 05:14:36 83° ESE 05:21:31 10° NNE
CZ-2C R/B 4.2 05:15:08 10° SSE 05:19:27 57° ENE 05:20:45 40° NNE
CZ-2C R/B 4.4 05:18:42 10° NE 05:22:42 26° E 05:26:35 10° SSE
Cosmos 1300 Rocket 4.3 05:19:14 10° S 05:23:23 51° E 05:27:35 10° NNE
Cosmos 1125 Rocket 3.8 05:25:55 50° SW 05:25:55 50° SW 05:30:08 10° S
IDEFIX/ARIANE 42P 3.6 05:23:01 10° NNE 05:28:03 47° E 05:33:03 10° S
Cosmos 2322 Rocket 4.5 05:26:40 10° NNE 05:30:46 20° ENE 05:34:51 10° ESE
Meteor 1-28 Rocket 3.8 05:28:33 10° S 05:31:13 46° S 05:31:13 46° S
USA 116 4.2 05:28:34 10° SSE 05:33:36 83° E 05:35:49 32° N
Cosmos 1536 Rocket 3.8 05:35:23 20° N 05:38:16 67° E 05:42:36 10° SSE
Meteor 1-19 Rocket 4.2 05:36:00 25° NNW 05:39:29 68° W 05:45:17 10° S
CZ-4C R/B 2.0 05:39:07 48° W 05:40:06 56° WNW 05:45:37 10° NNE
COSMO-SKYMED 1 3.3 05:37:04 10° SSE 05:41:16 53° ENE 05:45:30 10° N
Meteor 1-5 Rocket 4.0 05:37:27 10° S 05:42:59 86° W 05:48:22 10° N
Cosmos 192 4.2 05:44:29 10° SSW 05:49:23 89° ESE 05:54:18 10° NNE
Cosmos 1697 Rocket 3.0 05:48:13 38° WNW 05:49:23 42° WSW 05:54:37 10° S
Lacrosse 5 rocket 1.8 05:48:49 44° W 05:49:25 48° WSW 05:53:41 10° SSE
Okean-O 2.5 05:45:09 10° N 05:49:35 76° WNW 05:53:59 10° SSW
Cosmos 2279 Rocket 4.2 05:46:13 24° NNW 05:49:36 47° W 05:55:28 10° SSW
Cosmos 1538 Rocket 4.0 05:46:05 10° SSW 05:51:11 58° WNW 05:56:22 10° N
Meteosat 1 Rocket2 4.2 05:51:03 25° SW 05:51:58 28° SSW 05:55:13 10° SE
RESURS DK-1 2.3 05:50:27 33° NNW 05:52:16 87° ENE 05:56:24 10° SSE
Meteor 1-4 Rocket 3.0 05:52:29 10° S 05:56:13 67° E 05:59:59 10° NNE
Cosmos 1437 Rocket 3.3 05:53:05 10° SSW 05:56:07 37° WSW 05:56:07 37° WSW
Okean 1 Rocket 3.1 05:52:49 10° S 05:57:09 82° E 06:01:33 10° N
Landsat 4 3.6 05:55:26 10° S 05:59:07 62° WSW 06:00:49 30° NNW
Cosmos 923 Rocket 4.3 05:54:43 10° S 05:59:56 69° ESE 06:05:08 10° NNE
Cosmos 1500 3.7 05:56:32 10° S 06:00:20 61° E 06:04:09 10° NNE
OAO 3 Copernicus 4.2 05:59:37 30° W 06:02:07 73° NNW 06:07:08 10° ENE
MTI 3.6 05:59:17 10° S 06:02:26 65° WSW 06:03:33 36° NNW
deb Kosmos-1763 3.9 05:59:15 10° SSW 06:02:58 69° WNW 06:06:42 10° N
APEX 2.8 06:15:46 10° SSW 06:18:44 82° ESE 06:22:22 10° NNE
Meteor 1-23 Rocket 4.1 06:13:49 10° NNW 06:19:20 65° W 06:24:48 10° S
SJ-12 3.9 06:17:06 10° NNE 06:21:10 88° ESE 06:25:13 10° SSW
Okean 2 3.4 06:20:04 10° N 06:24:10 82° E 06:28:16 10° S
SMAP 4.4 06:21:54 10° NNE 06:26:20 43° E 06:30:44 10° S
Cosmos 1975 3.1 06:22:44 10° S 06:26:42 71° E 06:30:39 10° N
Cosmos 2360 Rocket 4.3 06:23:20 10° N 06:27:56 25° ENE 06:32:29 10° ESE
SKYMED 2 4.1 06:25:20 10° SSW 06:29:20 37° W 06:33:21 10° NNW
Cosmos 1980 Rocket 2.9 06:25:22 13° NW 06:29:41 33° WSW 06:34:40 10° SSW
Cosmos 1666 4.2 06:29:09 10° SSE 06:32:45 39° E 06:36:20 10° NNE
OAO 2 Rocket 4.2 06:32:24 13° W 06:36:43 40° SSW 06:41:33 10° SE
GEOS 3 Rocket 3.7 06:33:16 10° NNE 06:38:33 57° NW 06:43:44 10° SW
Cosmos 2285 Rocket 4.0 06:33:35 10° SSW 06:39:51 66° WNW 06:46:08 10° N
ATLAS CENTAUR R/B 2.8 06:36:44 10° S 06:40:16 38° ESE 06:43:43 10° NE
USA 234 3.3 06:35:17 10° SE 06:41:51 84° SW 06:48:27 10° NW
Cosmos 1515 4.1 06:38:39 10° NNW 06:42:16 41° W 06:45:52 10° SSW
Cosmos 1184 Rocket 2.8 06:41:58 10° N 06:45:18 90° W 06:48:37 10° S
Aurora 2 Rocket 3.7 06:42:04 10° WSW 06:45:47 39° S 06:50:50 10° ESE
Meteor 1-12 Rocket 4.3 06:41:25 10° S 06:47:10 90° NW 06:52:52 10° N
MSX 4.1 06:42:24 10° N 06:47:52 47° WNW 06:53:19 10° SW
Cosmos 389 Rocket 2.5 06:48:09 10° S 06:51:47 89° W 06:55:24 10° N
Ariane Rocket 3.1 06:49:09 10° NNE 06:54:14 86° ESE 06:59:18 10° SSW
Cosmos 1455 Rocket 3.4 06:50:11 10° S 06:54:36 76° E 06:59:03 10° N
GPS 2-05 Rocket1 2.8 06:53:11 10° WSW 06:56:36 82° SSE 06:59:57 10° ENE
Tiangong 1 4.3 06:56:17 10° SSE 06:56:57 11° SE 06:57:38 10° ESE
Cosmos 1544 Rocket 3.6 06:54:16 10° S 06:58:43 87° W 07:03:11 10° N
SWAS 4.5 06:54:53 10° SSW 06:59:07 62° WNW 07:03:24 10° NNE
CZ-2C R/B 3.4 06:57:02 10° NNW 07:00:45 23° WNW 07:04:24 10° WSW
Okean 1-7 Rocket 3.9 06:56:58 10° NNW 07:01:20 48° W 07:05:42 10° SSW
CSL-04 Debris 4.2 06:57:06 10° N 07:02:34 79° WNW 07:08:01 10° SSW
